Tracking 18957 objects as of 24-Jan-2018
HD Live streaming from Space Station
objects crossing your sky now

SL-24 R/B

Track SL-24 R/B now!
10-day predictions


NORAD ID: 40047
Int'l Code: 2014-033AP
Perigee: 616.5 km
Apogee: 1,459.1 km
Inclination: 97.9 °
Period: 105.8 minutes
Semi major axis: 7408 km
RCS: Unknown
Launch date: June 19, 2014
Source: Commonwealth of Independent States (former USSR) (CIS)
Launch site: Orenburg, Russia (OREN)

Note: This is a ROCKET BODY
aabbcc
Your satellite tracking list
Your tracking list is empty




NASA's NSSDC Master Catalog

Two Line Element Set (TLE):
1 40047U 14033AP  18022.95752840 -.00000037 +00000-0 +25298-5 0  9991
2 40047 097.8599 052.7357 0568593 259.7871 093.8716 13.61384390178646
Source of the keplerian elements: AFSPC